START_TIME,STEP,MOV.,M29,t_acc.,H22,t_acc.,H26,t_acc.,H30,t_acc.
1979-07-03 12:00:32.770 ,0,0,0.,24.0,0.,24.0,0.,24.0,0.,24.0
1979-07-03 12:00:56.770 ,1,1,0.,24.0,0.,24.0,0.,24.0,0.,24.0
1979-07-03 12:01:20.770 ,1,0,0.,24.0,0.,24.0,0.,24.0,0.,24.0
1979-07-03 12:01:44.770 ,2,1,0.,24.0,0.,24.0,0.,24.0,0.,24.0
1979-07-03 12:02:08.760 ,2,0,0.,24.0,0.,24.0,0.,24.0,0.,24.0
1979-07-03 12:02:32.770 ,3,1,0.,24.0,0.,24.0,0.,24.0,0.,24.0
1979-07-03 12:02:56.770 ,3,0,0.,24.0,0.,24.0,0.,24.0,0.,24.0
1979-07-03 12:03:20.770 ,4,1,0.,24.0,0.,24.0,0.,24.0,0.,24.0
1979-07-03 12:03:44.770 ,4,0,0.,24.0,0.,24.0,0.,24.0,0.,24.0
1979-07-03 12:04:08.760 ,5,1,0.,24.0,0.,24.0,0.,24.0,0.,24.0
1979-07-03 12:04:32.760 ,5,0,0.,24.0,0.,24.0,0.,24.0,0.,24.0
1979-07-03 12:04:56.760 ,6,1,0.,24.0,0.,24.0,0.,24.0,0.,24.0
1979-07-03 12:05:20.760 ,6,0,0.,24.0,0.,24.0,0.,24.0,0.,24.0
1979-07-03 12:05:44.760 ,7,1,0.,24.0,0.,24.0,0.,24.0,0.,24.0
1979-07-03 12:06:08.760 ,7,0,0.,24.0,0.,24.0,0.,24.0,0.,24.0
1979-07-03 12:06:32.760 ,7,1,0.,24.0,0.,24.0,0.,24.0,0.,24.0
1979-07-03 12:06:56.760 ,7,0,0.,24.0,0.,24.0,0.,24.0,0.,24.0
1979-07-03 12:07:20.760 ,6,1,0.,24.0,0.,24.0,0.,24.0,0.,24.0
1979-07-03 12:07:44.760 ,6,0,0.,24.0,0.,24.0,0.,24.0,0.,24.0
1979-07-03 12:08:08.760 ,5,1,0.,24.0,0.,24.0,0.,24.0,0.,24.0
1979-07-03 12:08:32.770 ,5,0,0.,24.0,0.,24.0,0.,24.0,0.,24.0
1979-07-03 12:08:56.770 ,4,1,0.,24.0,0.,24.0,0.,24.0,0.,24.0
1979-07-03 12:09:20.770 ,4,0,0.,24.0,0.,24.0,0.,24.0,0.,24.0
1979-07-03 12:09:44.770 ,3,1,0.,24.0,0.,24.0,0.,24.0,0.,24.0
1979-07-03 12:10:08.770 ,3,0,0.,24.0,0.,24.0,0.,24.0,0.,24.0
1979-07-03 12:10:32.770 ,2,1,0.,24.0,0.,24.0,0.,24.0,0.,24.0
1979-07-03 12:10:56.770 ,2,0,0.,24.0,0.,24.0,0.,24.0,0.,24.0
1979-07-03 12:12:08.770 ,0,0,0.,24.0,0.,24.0,0.,24.0,0.,24.0
1979-07-03 12:12:32.770 ,0,0,0.,24.0,0.,24.0,0.,24.0,0.,24.0
1979-07-03 12:12:56.760 ,0,1,0.,24.0,0.,24.0,0.,24.0,0.,24.0
1979-07-03 12:13:20.760 ,0,0,0.,24.0,0.,24.0,0.,24.0,0.,24.0
1979-07-03 12:13:44.760 ,1,1,0.,24.0,0.,24.0,0.,24.0,0.,24.0
1979-07-03 12:14:08.760 ,1,0,0.,24.0,0.,24.0,0.,24.0,0.,24.0
1979-07-03 12:14:32.760 ,2,1,0.,24.0,0.,24.0,0.,24.0,0.,24.0
1979-07-03 12:14:56.760 ,2,0,0.,24.0,0.,24.0,0.,24.0,0.,24.0
1979-07-03 12:15:20.760 ,3,1,0.,24.0,0.,24.0,0.,24.0,0.,24.0
1979-07-03 12:15:44.760 ,3,0,0.,24.0,0.,24.0,0.,24.0,0.,24.0
1979-07-03 12:16:08.760 ,4,1,0.,24.0,0.,24.0,0.,24.0,0.,24.0
1979-07-03 12:16:32.760 ,4,0,0.,24.0,0.,24.0,0.,24.0,0.,24.0
1979-07-03 12:16:56.760 ,5,1,0.,24.0,0.,24.0,0.,24.0,0.,24.0
1979-07-03 12:17:20.760 ,5,0,0.,24.0,0.,24.0,0.,24.0,0.,24.0
1979-07-03 12:17:44.760 ,6,1,0.,24.0,0.,24.0,0.,24.0,0.,24.0
1979-07-03 12:18:08.760 ,6,0,0.,24.0,0.,24.0,0.,24.0,0.,24.0
1979-07-03 12:18:32.760 ,7,0,0.,24.0,0.,24.0,0.,24.0,0.,24.0
1979-07-03 12:18:56.760 ,7,0,0.,24.0,0.,24.0,0.,24.0,0.,24.0
1979-07-03 12:19:20.760 ,5,1,0.,24.0,0.,24.0,0.,24.0,0.,24.0
1979-07-03 12:19:44.760 ,1,1,0.,24.0,0.,24.0,0.,24.0,0.,24.0
1979-07-03 12:20:08.760 ,2,1,0.,24.0,0.,24.0,0.,24.0,0.,24.0
1979-07-03 12:20:32.760 ,6,1,0.,24.0,0.,24.0,0.,24.0,0.,24.0
1979-07-03 12:20:56.760 ,5,1,0.,24.0,0.,24.0,0.,24.0,0.,24.0
1979-07-03 12:21:20.760 ,1,1,0.,24.0,0.,24.0,0.,24.0,0.,24.0
1979-07-03 12:21:44.760 ,2,1,0.,24.0,0.,24.0,0.,24.0,0.,24.0
1979-07-03 12:22:08.760 ,6,1,0.,24.0,0.,24.0,0.,24.0,0.,24.0
1979-07-03 12:22:32.760 ,5,1,0.,24.0,0.,24.0,0.,24.0,0.,24.0
1979-07-03 12:22:56.760 ,1,1,0.,24.0,0.,24.0,0.,24.0,0.,24.0
1979-07-03 12:23:20.760 ,2,1,0.,24.0,0.,24.0,0.,24.0,0.,24.0
1979-07-03 12:23:44.760 ,6,1,0.,24.0,0.,24.0,0.,24.0,0.,24.0
1979-07-03 12:24:08.760 ,5,1,0.,24.0,0.,24.0,0.,24.0,0.,24.0
1979-07-03 12:24:32.760 ,1,1,0.,24.0,0.,24.0,0.,24.0,0.,24.0
1979-07-03 12:24:56.760 ,2,1,0.,24.0,0.,24.0,0.,24.0,0.,24.0
1979-07-03 12:25:20.760 ,6,1,0.,24.0,0.,24.0,0.,24.0,0.,24.0
1979-07-03 12:25:44.760 ,5,1,0.,24.0,0.,24.0,0.,24.0,0.,24.0
1979-07-03 12:26:08.760 ,1,1,0.,24.0,0.,24.0,0.,24.0,0.,24.0
1979-07-03 12:26:32.760 ,2,1,0.,24.0,0.,24.0,0.,24.0,0.,24.0
1979-07-03 12:26:56.760 ,6,1,0.,24.0,0.,24.0,0.,24.0,0.,24.0
1979-07-03 12:27:20.760 ,5,1,0.,24.0,0.,24.0,0.,24.0,0.,24.0
1979-07-03 12:27:44.760 ,1,1,0.,24.0,0.,24.0,0.,24.0,0.,24.0
1979-07-03 12:28:08.760 ,2,1,0.,24.0,0.,24.0,0.,24.0,0.,24.0
1979-07-03 12:28:32.760 ,6,1,0.,24.0,0.,24.0,0.,24.0,0.,24.0
1979-07-03 12:28:56.760 ,5,1,0.,24.0,0.,24.0,0.,24.0,0.,24.0
1979-07-03 12:29:20.760 ,1,1,0.,24.0,0.,24.0,0.,24.0,0.,24.0
1979-07-03 12:29:44.760 ,0,0,0.,24.0,0.,24.0,0.,24.0,0.,24.0
1979-07-03 12:30:08.760 ,0,0,0.,24.0,0.,24.0,0.,24.0,0.,24.0
1979-07-03 12:30:32.760 ,5,1,0.,24.0,0.,24.0,0.,24.0,0.,24.0
1979-07-03 12:30:56.760 ,5,0,0.,24.0,0.,24.0,0.,24.0,0.,24.0
1979-07-03 12:31:20.760 ,4,1,0.,24.0,0.,24.0,0.,24.0,0.,24.0
1979-07-03 12:31:44.760 ,4,0,0.,24.0,0.,24.0,0.,24.0,0.,24.0
1979-07-03 12:32:08.760 ,3,1,0.,24.0,0.,24.0,0.,24.0,0.,24.0
1979-07-03 12:32:32.760 ,3,0,0.,24.0,0.,24.0,0.,24.0,0.,24.0
1979-07-03 12:32:56.760 ,2,1,0.,24.0,0.,24.0,0.,24.0,0.,24.0
1979-07-03 12:33:20.760 ,2,0,0.,24.0,0.,24.0,0.,24.0,0.,24.0
1979-07-03 12:33:44.760 ,1,1,0.,24.0,0.,24.0,0.,24.0,0.,24.0
1979-07-03 12:34:08.760 ,1,0,0.,24.0,0.,24.0,0.,24.0,0.,24.0
1979-07-03 12:34:32.760 ,0,1,0.,24.0,0.,24.0,0.,24.0,0.,24.0
1979-07-03 12:34:56.760 ,0,0,0.,24.0,0.,24.0,0.,24.0,0.,24.0
1979-07-03 12:35:20.760 ,0,1,0.,24.0,0.,24.0,0.,24.0,0.,24.0
1979-07-03 12:35:44.760 ,0,0,0.,24.0,0.,24.0,0.,24.0,0.,24.0
1979-07-03 12:36:08.760 ,1,1,0.,24.0,0.,24.0,0.,24.0,0.,24.0
1979-07-03 12:36:32.760 ,1,0,0.,24.0,0.,24.0,0.,24.0,0.,24.0
1979-07-03 12:36:56.760 ,2,1,0.,24.0,0.,24.0,0.,24.0,0.,24.0
1979-07-03 12:37:20.760 ,2,0,0.,24.0,0.,24.0,0.,24.0,0.,24.0
1979-07-03 12:37:44.760 ,3,1,0.,24.0,0.,24.0,0.,24.0,0.,24.0
1979-07-03 12:38:08.760 ,3,0,0.,24.0,0.,24.0,0.,24.0,0.,24.0
1979-07-03 12:38:32.760 ,4,1,0.,24.0,0.,24.0,0.,24.0,0.,24.0
1979-07-03 12:38:56.760 ,4,0,0.,24.0,0.,24.0,0.,24.0,0.,24.0
1979-07-03 12:39:20.760 ,5,1,0.,24.0,0.,24.0,0.,24.0,0.,24.0
1979-07-03 12:39:44.760 ,5,0,0.,24.0,0.,24.0,0.,24.0,0.,24.0
1979-07-03 12:40:08.760 ,6,1,0.,24.0,0.,24.0,0.,24.0,0.,24.0
1979-07-03 12:40:32.760 ,6,0,0.,24.0,0.,24.0,0.,24.0,0.,24.0
1979-07-03 12:40:56.760 ,7,1,0.,24.0,0.,24.0,0.,24.0,0.,24.0
1979-07-03 12:41:20.760 ,7,0,0.,24.0,0.,24.0,0.,24.0,0.,24.0
1979-07-03 12:41:44.760 ,7,1,0.,24.0,0.,24.0,0.,24.0,0.,24.0
1979-07-03 12:42:08.760 ,7,0,0.,24.0,0.,24.0,0.,24.0,0.,24.0
1979-07-03 12:42:32.760 ,6,1,0.,24.0,0.,24.0,0.,24.0,0.,24.0
1979-07-03 12:42:56.760 ,6,0,0.,24.0,0.,24.0,0.,24.0,0.,24.0
1979-07-03 12:43:20.760 ,5,1,0.,24.0,0.,24.0,0.,24.0,0.,24.0
1979-07-03 12:43:44.760 ,5,0,0.,24.0,0.,24.0,0.,24.0,0.,24.0
1979-07-03 12:44:08.760 ,4,1,0.,24.0,0.,24.0,0.,24.0,0.,24.0
1979-07-03 12:44:32.760 ,4,0,0.,24.0,0.,24.0,0.,24.0,0.,24.0
1979-07-03 12:44:56.760 ,3,1,0.,24.0,0.,24.0,0.,24.0,0.,24.0
1979-07-03 12:45:20.760 ,3,0,0.,24.0,0.,24.0,0.,24.0,0.,24.0
1979-07-03 12:45:44.760 ,2,1,0.,24.0,0.,24.0,0.,24.0,0.,24.0
1979-07-03 12:46:08.760 ,2,0,0.,24.0,0.,24.0,0.,24.0,0.,24.0
1979-07-03 12:46:32.760 ,1,1,0.,24.0,0.,24.0,0.,24.0,0.,24.0
1979-07-03 12:46:56.760 ,1,0,1.,24.0,0.,24.0,0.,24.0,0.,24.0
1979-07-03 12:47:20.760 ,0,1,0.,24.0,0.,24.0,0.,24.0,0.,24.0
1979-07-03 12:47:44.760 ,0,0,0.,24.0,0.,24.0,0.,24.0,0.,24.0
1979-07-03 12:48:08.760 ,0,1,0.,24.0,0.,24.0,0.,24.0,0.,24.0
1979-07-03 12:48:32.760 ,0,0,0.,24.0,0.,24.0,0.,24.0,0.,24.0
1979-07-03 12:48:56.760 ,1,1,0.,24.0,0.,24.0,0.,24.0,0.,24.0
1979-07-03 12:49:20.760 ,1,0,0.,24.0,0.,24.0,0.,24.0,0.,24.0
1979-07-03 12:49:44.760 ,2,1,0.,24.0,0.,24.0,0.,24.0,0.,24.0
1979-07-03 12:50:08.760 ,2,0,0.,24.0,0.,24.0,0.,24.0,0.,24.0
1979-07-03 12:50:32.760 ,3,1,0.,24.0,0.,24.0,0.,24.0,0.,24.0
1979-07-03 12:50:56.760 ,3,0,0.,24.0,0.,24.0,0.,24.0,0.,24.0
1979-07-03 12:51:20.760 ,4,1,0.,24.0,0.,24.0,0.,24.0,0.,24.0
1979-07-03 12:51:44.760 ,4,0,0.,24.0,0.,24.0,0.,24.0,0.,24.0
1979-07-03 12:52:08.760 ,5,1,0.,24.0,0.,24.0,0.,24.0,0.,24.0
1979-07-03 12:52:32.760 ,5,0,0.,24.0,0.,24.0,0.,24.0,0.,24.0
1979-07-03 12:52:56.760 ,6,1,0.,24.0,0.,24.0,0.,24.0,0.,24.0
1979-07-03 12:53:20.760 ,6,0,0.,24.0,0.,24.0,0.,24.0,0.,24.0
1979-07-03 12:53:44.760 ,7,1,0.,24.0,0.,24.0,0.,24.0,0.,24.0
1979-07-03 12:54:08.760 ,7,0,0.,24.0,0.,24.0,0.,24.0,0.,24.0
1979-07-03 12:54:32.760 ,7,1,0.,24.0,0.,24.0,0.,24.0,0.,24.0
1979-07-03 12:54:56.760 ,7,0,0.,24.0,0.,24.0,0.,24.0,0.,24.0
1979-07-03 12:55:20.760 ,6,1,0.,24.0,0.,24.0,0.,24.0,0.,24.0
1979-07-03 12:55:44.760 ,6,0,0.,24.0,0.,24.0,0.,24.0,0.,24.0
1979-07-03 12:56:08.760 ,5,1,0.,24.0,0.,24.0,0.,24.0,0.,24.0
1979-07-03 12:56:32.760 ,5,0,0.,24.0,0.,24.0,0.,24.0,0.,24.0
1979-07-03 12:56:56.760 ,4,1,0.,24.0,0.,24.0,0.,24.0,0.,24.0
1979-07-03 12:57:20.760 ,4,0,0.,24.0,0.,24.0,0.,24.0,0.,24.0
1979-07-03 12:57:44.760 ,3,1,0.,24.0,0.,24.0,0.,24.0,0.,24.0
1979-07-03 12:58:08.760 ,3,0,0.,24.0,0.,24.0,0.,24.0,0.,24.0
1979-07-03 12:58:32.760 ,2,1,0.,24.0,0.,24.0,0.,24.0,0.,24.0
1979-07-03 12:58:56.760 ,2,0,0.,24.0,0.,24.0,0.,24.0,0.,24.0
1979-07-03 12:59:20.760 ,1,1,0.,24.0,0.,24.0,0.,24.0,0.,24.0
1979-07-03 12:59:44.760 ,1,0,0.,24.0,0.,24.0,0.,24.0,0.,24.0
1979-07-03 13:00:08.760 ,0,1,0.,24.0,0.,24.0,0.,24.0,0.,24.0
1979-07-03 13:00:32.760 ,0,0,0.,24.0,0.,24.0,0.,24.0,0.,24.0
1979-07-03 13:00:56.760 ,0,1,0.,24.0,0.,24.0,0.,24.0,0.,24.0
1979-07-03 13:01:20.760 ,0,0,0.,24.0,0.,24.0,0.,24.0,0.,24.0
1979-07-03 13:01:44.760 ,1,1,0.,24.0,0.,24.0,0.,24.0,0.,24.0
1979-07-03 13:02:08.760 ,1,0,0.,24.0,0.,24.0,0.,24.0,0.,24.0
1979-07-03 13:02:32.760 ,2,1,0.,24.0,0.,24.0,0.,24.0,0.,24.0
1979-07-03 13:02:56.760 ,2,0,0.,24.0,0.,24.0,0.,24.0,0.,24.0
1979-07-03 13:03:20.760 ,3,1,0.,24.0,0.,24.0,0.,24.0,0.,24.0
1979-07-03 13:03:44.760 ,3,0,0.,24.0,0.,24.0,0.,24.0,0.,24.0
1979-07-03 13:04:08.760 ,4,1,0.,24.0,0.,24.0,0.,24.0,0.,24.0
1979-07-03 13:04:32.760 ,4,0,0.,24.0,0.,24.0,0.,24.0,0.,24.0
1979-07-03 13:04:56.760 ,5,1,0.,24.0,0.,24.0,0.,24.0,0.,24.0
1979-07-03 13:05:20.760 ,5,0,0.,24.0,0.,24.0,0.,24.0,0.,24.0
1979-07-03 13:05:44.760 ,6,1,0.,24.0,0.,24.0,0.,24.0,0.,24.0
1979-07-03 13:06:08.760 ,6,0,0.,24.0,0.,24.0,0.,24.0,0.,24.0
1979-07-03 13:06:32.760 ,7,0,0.,24.0,0.,24.0,0.,24.0,0.,24.0
1979-07-03 13:06:56.760 ,7,0,0.,24.0,0.,24.0,0.,24.0,0.,24.0
1979-07-03 13:07:20.760 ,5,1,0.,24.0,0.,24.0,0.,24.0,0.,24.0
1979-07-03 13:07:44.760 ,1,1,0.,24.0,0.,24.0,0.,24.0,0.,24.0
1979-07-03 13:08:08.760 ,2,1,0.,24.0,0.,24.0,0.,24.0,0.,24.0
1979-07-03 13:08:32.760 ,6,1,0.,24.0,0.,24.0,0.,24.0,0.,24.0
1979-07-03 13:08:56.760 ,5,1,0.,24.0,0.,24.0,0.,24.0,0.,24.0
1979-07-03 13:09:20.760 ,1,1,0.,24.0,0.,24.0,0.,24.0,0.,24.0
1979-07-03 13:09:44.760 ,2,1,0.,24.0,0.,24.0,0.,24.0,0.,24.0
1979-07-03 13:10:08.760 ,6,1,0.,24.0,0.,24.0,0.,24.0,0.,24.0
1979-07-03 13:10:32.760 ,5,1,0.,24.0,0.,24.0,0.,24.0,0.,24.0
1979-07-03 13:10:56.760 ,1,1,1.,24.0,0.,24.0,0.,24.0,0.,24.0
1979-07-03 13:11:20.760 ,2,1,0.,24.0,0.,24.0,0.,24.0,0.,24.0
1979-07-03 13:11:44.760 ,6,1,0.,24.0,0.,24.0,0.,24.0,0.,24.0
1979-07-03 13:12:08.760 ,5,1,0.,24.0,0.,24.0,0.,24.0,0.,24.0
1979-07-03 13:12:32.760 ,1,1,0.,24.0,0.,24.0,0.,24.0,0.,24.0
1979-07-03 13:12:56.760 ,0,0,0.,24.0,0.,24.0,0.,24.0,0.,24.0
1979-07-03 13:13:20.760 ,0,0,0.,24.0,0.,24.0,0.,24.0,0.,24.0
1979-07-03 13:13:44.760 ,5,1,2.,24.0,0.,24.0,0.,24.0,0.,24.0
1979-07-03 13:14:08.760 ,1,1,0.,24.0,0.,24.0,0.,24.0,0.,24.0
1979-07-03 13:14:32.760 ,2,1,0.,24.0,0.,24.0,0.,24.0,0.,24.0
1979-07-03 13:14:56.760 ,6,1,0.,24.0,0.,24.0,0.,24.0,0.,24.0
1979-07-03 13:15:20.760 ,5,1,0.,24.0,0.,24.0,0.,24.0,0.,24.0
1979-07-03 13:15:44.760 ,1,1,0.,24.0,0.,24.0,0.,24.0,0.,24.0
1979-07-03 13:16:08.760 ,2,1,0.,24.0,0.,24.0,0.,24.0,0.,24.0
1979-07-03 13:16:32.760 ,6,1,0.,24.0,0.,24.0,0.,24.0,0.,24.0
1979-07-03 13:16:56.760 ,5,1,0.,24.0,0.,24.0,0.,24.0,0.,24.0
1979-07-03 13:17:20.760 ,1,1,0.,24.0,0.,24.0,0.,24.0,0.,24.0
1979-07-03 13:17:44.760 ,0,0,0.,24.0,0.,24.0,0.,24.0,0.,24.0
1979-07-03 13:18:08.760 ,0,0,0.,24.0,0.,24.0,0.,24.0,0.,24.0
1979-07-03 13:18:32.760 ,5,1,0.,24.0,0.,24.0,0.,24.0,0.,24.0
1979-07-03 13:18:56.760 ,5,0,0.,24.0,0.,24.0,0.,24.0,1.,24.0
1979-07-03 13:19:20.760 ,4,1,0.,24.0,0.,24.0,0.,24.0,0.,24.0
1979-07-03 13:19:44.760 ,4,0,0.,24.0,0.,24.0,0.,24.0,0.,24.0
1979-07-03 13:20:08.760 ,3,1,0.,24.0,0.,24.0,0.,24.0,0.,24.0
1979-07-03 13:20:32.760 ,3,0,0.,24.0,0.,24.0,0.,24.0,0.,24.0
1979-07-03 13:20:56.760 ,2,1,0.,24.0,0.,24.0,0.,24.0,0.,24.0
1979-07-03 13:21:20.760 ,2,0,0.,24.0,0.,24.0,0.,24.0,0.,24.0
1979-07-03 13:21:44.760 ,1,1,0.,24.0,0.,24.0,0.,24.0,0.,24.0
1979-07-03 13:22:08.760 ,1,0,0.,24.0,0.,24.0,0.,24.0,0.,24.0
1979-07-03 13:22:32.760 ,0,1,0.,24.0,0.,24.0,0.,24.0,0.,24.0
1979-07-03 13:22:56.760 ,0,0,0.,24.0,0.,24.0,0.,24.0,0.,24.0
1979-07-03 13:23:20.760 ,0,1,0.,24.0,0.,24.0,0.,24.0,0.,24.0
1979-07-03 13:23:44.760 ,0,0,1.,24.0,0.,24.0,0.,24.0,0.,24.0
1979-07-03 13:24:08.760 ,1,1,0.,24.0,0.,24.0,0.,24.0,0.,24.0
1979-07-03 13:24:32.760 ,1,0,0.,24.0,0.,24.0,0.,24.0,0.,24.0
1979-07-03 13:24:56.760 ,2,1,0.,24.0,0.,24.0,0.,24.0,0.,24.0
1979-07-03 13:25:20.760 ,2,0,0.,24.0,0.,24.0,0.,24.0,0.,24.0
1979-07-03 13:25:44.760 ,3,1,0.,24.0,0.,24.0,0.,24.0,0.,24.0
1979-07-03 13:26:08.760 ,3,0,0.,24.0,0.,24.0,0.,24.0,0.,24.0
1979-07-03 13:26:32.760 ,4,1,0.,24.0,0.,24.0,0.,24.0,0.,24.0
1979-07-03 13:26:56.760 ,4,0,0.,24.0,0.,24.0,0.,24.0,0.,24.0
1979-07-03 13:27:20.760 ,5,1,0.,24.0,0.,24.0,0.,24.0,0.,24.0
1979-07-03 13:27:44.760 ,5,0,0.,24.0,0.,24.0,0.,24.0,0.,24.0
1979-07-03 13:28:08.760 ,6,1,0.,24.0,0.,24.0,0.,24.0,0.,24.0
1979-07-03 13:28:32.760 ,6,0,0.,24.0,0.,24.0,0.,24.0,0.,24.0
1979-07-03 13:28:56.760 ,7,1,0.,24.0,0.,24.0,0.,24.0,0.,24.0
1979-07-03 13:29:20.760 ,7,0,0.,24.0,0.,24.0,0.,24.0,0.,24.0
1979-07-03 13:29:44.760 ,7,1,0.,24.0,0.,24.0,0.,24.0,0.,24.0
1979-07-03 13:30:08.760 ,7,0,0.,24.0,0.,24.0,0.,24.0,0.,24.0
1979-07-03 13:30:32.760 ,6,1,0.,24.0,0.,24.0,0.,24.0,0.,24.0
1979-07-03 13:30:56.760 ,6,0,0.,24.0,0.,24.0,0.,24.0,0.,24.0
1979-07-03 13:31:20.760 ,5,1,0.,24.0,0.,24.0,0.,24.0,0.,24.0
1979-07-03 13:31:44.760 ,5,0,0.,24.0,0.,24.0,0.,24.0,0.,24.0
1979-07-03 13:32:08.760 ,4,1,0.,24.0,0.,24.0,0.,24.0,0.,24.0
1979-07-03 13:32:32.760 ,4,0,0.,24.0,0.,24.0,0.,24.0,0.,24.0
1979-07-03 13:32:56.760 ,3,1,0.,24.0,0.,24.0,0.,24.0,0.,24.0
1979-07-03 13:33:20.760 ,3,0,0.,24.0,0.,24.0,0.,24.0,0.,24.0
1979-07-03 13:33:44.760 ,2,1,0.,24.0,0.,24.0,0.,24.0,0.,24.0
1979-07-03 13:34:08.760 ,2,0,0.,24.0,0.,24.0,0.,24.0,0.,24.0
1979-07-03 13:34:32.760 ,1,1,0.,24.0,0.,24.0,0.,24.0,0.,24.0
1979-07-03 13:34:56.760 ,1,0,0.,24.0,0.,24.0,0.,24.0,0.,24.0
1979-07-03 13:35:20.760 ,0,1,0.,24.0,0.,24.0,0.,24.0,0.,24.0
1979-07-03 13:35:44.760 ,0,0,0.,24.0,0.,24.0,0.,24.0,0.,24.0
1979-07-03 13:36:08.760 ,0,1,0.,24.0,0.,24.0,0.,24.0,0.,24.0
1979-07-03 13:36:32.760 ,0,0,0.,24.0,0.,24.0,0.,24.0,0.,24.0
1979-07-03 13:36:56.760 ,1,1,0.,24.0,0.,24.0,0.,24.0,0.,24.0
1979-07-03 13:37:20.760 ,1,0,0.,24.0,0.,24.0,0.,24.0,0.,24.0
1979-07-03 13:37:44.760 ,2,1,0.,24.0,0.,24.0,0.,24.0,0.,24.0
1979-07-03 13:38:08.760 ,2,0,0.,24.0,0.,24.0,0.,24.0,0.,24.0
1979-07-03 13:38:32.760 ,3,1,0.,24.0,0.,24.0,0.,24.0,0.,24.0
1979-07-03 13:38:56.760 ,3,0,0.,24.0,0.,24.0,0.,24.0,0.,24.0
1979-07-03 13:39:20.760 ,4,1,0.,24.0,0.,24.0,0.,24.0,0.,24.0
1979-07-03 13:39:44.760 ,4,0,0.,24.0,0.,24.0,0.,24.0,0.,24.0
1979-07-03 13:40:08.760 ,5,1,0.,24.0,0.,24.0,0.,24.0,0.,24.0
1979-07-03 13:40:32.760 ,5,0,0.,24.0,0.,24.0,0.,24.0,0.,24.0
1979-07-03 13:40:56.760 ,6,1,0.,24.0,0.,24.0,0.,24.0,0.,24.0
1979-07-03 13:41:20.760 ,6,0,0.,24.0,0.,24.0,0.,24.0,0.,24.0
1979-07-03 13:42:32.760 ,0,0,0.,24.0,0.,24.0,0.,24.0,0.,24.0
1979-07-03 13:42:56.760 ,0,0,0.,24.0,0.,24.0,0.,24.0,0.,24.0
1979-07-03 13:43:20.760 ,6,1,0.,24.0,0.,24.0,0.,24.0,0.,24.0
1979-07-03 13:43:44.760 ,6,0,0.,24.0,0.,24.0,0.,24.0,0.,24.0
1979-07-03 13:44:08.760 ,5,1,0.,24.0,0.,24.0,0.,24.0,0.,24.0
1979-07-03 13:44:32.760 ,5,0,0.,24.0,0.,24.0,0.,24.0,0.,24.0
1979-07-03 13:44:56.760 ,4,1,0.,24.0,0.,24.0,0.,24.0,0.,24.0
1979-07-03 13:45:20.760 ,4,0,0.,24.0,0.,24.0,0.,24.0,0.,24.0
1979-07-03 13:45:44.760 ,3,1,0.,24.0,0.,24.0,0.,24.0,0.,24.0
1979-07-03 13:46:08.760 ,3,0,0.,24.0,0.,24.0,0.,24.0,0.,24.0
1979-07-03 13:46:32.760 ,2,1,0.,24.0,0.,24.0,0.,24.0,0.,24.0
1979-07-03 13:46:56.760 ,2,0,0.,24.0,0.,24.0,0.,24.0,0.,24.0
1979-07-03 13:47:20.760 ,1,1,0.,24.0,0.,24.0,0.,24.0,0.,24.0
1979-07-03 13:47:44.760 ,1,0,0.,24.0,0.,24.0,0.,24.0,0.,24.0
1979-07-03 13:48:08.760 ,0,1,0.,24.0,0.,24.0,0.,24.0,0.,24.0
1979-07-03 13:48:32.760 ,0,0,1.,24.0,0.,24.0,0.,24.0,0.,24.0
1979-07-03 13:48:56.760 ,0,1,0.,24.0,0.,24.0,0.,24.0,0.,24.0
1979-07-03 13:49:20.760 ,0,0,0.,24.0,0.,24.0,0.,24.0,0.,24.0
1979-07-03 13:49:44.760 ,1,1,0.,24.0,0.,24.0,0.,24.0,0.,24.0
1979-07-03 13:50:08.760 ,1,0,0.,24.0,0.,24.0,0.,24.0,0.,24.0
1979-07-03 13:50:32.760 ,2,1,0.,24.0,0.,24.0,0.,24.0,0.,24.0
1979-07-03 13:50:56.760 ,2,0,0.,24.0,0.,24.0,0.,24.0,0.,24.0
1979-07-03 13:51:20.760 ,3,1,0.,24.0,0.,24.0,0.,24.0,0.,24.0
1979-07-03 13:51:44.760 ,3,0,0.,24.0,0.,24.0,0.,24.0,0.,24.0
1979-07-03 13:52:08.760 ,4,1,0.,24.0,0.,24.0,0.,24.0,0.,24.0
1979-07-03 13:52:32.760 ,4,0,0.,24.0,0.,24.0,0.,24.0,0.,24.0
1979-07-03 13:52:56.760 ,5,1,0.,24.0,0.,24.0,0.,24.0,0.,24.0
1979-07-03 13:53:20.760 ,5,0,0.,24.0,0.,24.0,0.,24.0,0.,24.0
1979-07-03 13:53:44.760 ,6,1,0.,24.0,0.,24.0,0.,24.0,0.,24.0
1979-07-03 13:54:08.760 ,6,0,1.,24.0,0.,24.0,0.,24.0,0.,24.0
1979-07-03 13:54:32.760 ,7,0,0.,24.0,0.,24.0,0.,24.0,0.,24.0
1979-07-03 13:54:56.760 ,7,0,0.,24.0,0.,24.0,0.,24.0,0.,24.0
1979-07-03 13:55:20.760 ,5,1,0.,24.0,0.,24.0,0.,24.0,0.,24.0
1979-07-03 13:55:44.760 ,1,1,0.,24.0,0.,24.0,0.,24.0,0.,24.0
1979-07-03 13:56:08.760 ,2,1,0.,24.0,0.,24.0,0.,24.0,0.,24.0
1979-07-03 13:56:32.760 ,6,1,0.,24.0,0.,24.0,1.,24.0,0.,24.0
1979-07-03 13:56:56.760 ,5,1,0.,24.0,0.,24.0,0.,24.0,0.,24.0
1979-07-03 13:57:20.760 ,1,1,0.,24.0,0.,24.0,0.,24.0,0.,24.0
1979-07-03 13:57:44.760 ,2,1,0.,24.0,0.,24.0,0.,24.0,0.,24.0
1979-07-03 13:58:08.760 ,6,1,0.,24.0,0.,24.0,0.,24.0,0.,24.0
1979-07-03 13:58:32.760 ,5,1,0.,24.0,0.,24.0,0.,24.0,0.,24.0
1979-07-03 13:58:56.760 ,1,1,0.,24.0,0.,24.0,0.,24.0,0.,24.0
1979-07-03 13:59:20.760 ,2,1,0.,24.0,0.,24.0,0.,24.0,0.,24.0
1979-07-03 13:59:44.760 ,6,1,0.,24.0,0.,24.0,0.,24.0,0.,24.0
1979-07-03 14:00:08.760 ,5,1,0.,24.0,0.,24.0,0.,24.0,0.,24.0
1979-07-03 14:00:32.760 ,1,1,0.,24.0,0.,24.0,0.,24.0,0.,24.0
1979-07-03 14:00:56.760 ,2,1,0.,24.0,0.,24.0,0.,24.0,0.,24.0
1979-07-03 14:01:20.760 ,6,1,0.,24.0,0.,24.0,0.,24.0,0.,24.0
1979-07-03 14:01:44.760 ,5,1,0.,24.0,0.,24.0,0.,24.0,0.,24.0
1979-07-03 14:02:08.760 ,1,1,0.,24.0,0.,24.0,0.,24.0,0.,24.0
1979-07-03 14:02:32.760 ,2,1,0.,24.0,0.,24.0,0.,24.0,0.,24.0
1979-07-03 14:02:56.760 ,6,1,0.,24.0,0.,24.0,0.,24.0,0.,24.0
1979-07-03 14:03:20.760 ,5,1,0.,24.0,0.,24.0,0.,24.0,0.,24.0
1979-07-03 14:03:44.760 ,1,1,0.,24.0,0.,24.0,0.,24.0,0.,24.0
1979-07-03 14:04:08.760 ,2,1,0.,24.0,0.,24.0,0.,24.0,0.,24.0
1979-07-03 14:04:32.760 ,6,1,0.,24.0,0.,24.0,0.,24.0,0.,24.0
1979-07-03 14:04:56.760 ,5,1,0.,24.0,0.,24.0,0.,24.0,0.,24.0
1979-07-03 14:05:20.760 ,1,1,0.,24.0,0.,24.0,0.,24.0,0.,24.0
1979-07-03 14:05:44.760 ,0,0,0.,24.0,0.,24.0,0.,24.0,0.,24.0
1979-07-03 14:06:08.760 ,0,0,0.,24.0,0.,24.0,0.,24.0,0.,24.0
1979-07-03 14:06:32.760 ,5,1,0.,24.0,0.,24.0,0.,24.0,0.,24.0
1979-07-03 14:06:56.760 ,5,0,0.,24.0,0.,24.0,0.,24.0,0.,24.0
1979-07-03 14:07:20.760 ,4,1,0.,24.0,0.,24.0,0.,24.0,0.,24.0
1979-07-03 14:07:44.760 ,4,0,0.,24.0,0.,24.0,0.,24.0,0.,24.0
1979-07-03 14:08:08.760 ,3,1,0.,24.0,0.,24.0,0.,24.0,0.,24.0
1979-07-03 14:08:32.760 ,3,0,0.,24.0,0.,24.0,0.,24.0,0.,24.0
1979-07-03 14:08:56.760 ,2,1,0.,24.0,0.,24.0,0.,24.0,0.,24.0
1979-07-03 14:09:20.760 ,2,0,0.,24.0,0.,24.0,0.,24.0,0.,24.0
1979-07-03 14:09:44.760 ,1,1,0.,24.0,0.,24.0,0.,24.0,0.,24.0
1979-07-03 14:10:08.760 ,1,0,0.,24.0,0.,24.0,0.,24.0,0.,24.0
1979-07-03 14:10:32.760 ,0,1,0.,24.0,0.,24.0,0.,24.0,0.,24.0
1979-07-03 14:10:56.760 ,0,0,0.,24.0,0.,24.0,0.,24.0,0.,24.0
1979-07-03 14:11:20.760 ,0,1,0.,24.0,0.,24.0,0.,24.0,0.,24.0
1979-07-03 14:11:44.760 ,0,0,0.,24.0,0.,24.0,0.,24.0,0.,24.0
1979-07-03 14:12:08.760 ,1,1,0.,24.0,0.,24.0,0.,24.0,0.,24.0
1979-07-03 14:12:32.760 ,1,0,0.,24.0,0.,24.0,0.,24.0,0.,24.0
1979-07-03 14:12:56.760 ,2,1,0.,24.0,0.,24.0,0.,24.0,0.,24.0
1979-07-03 14:13:20.760 ,2,0,0.,24.0,0.,24.0,0.,24.0,0.,24.0
1979-07-03 14:13:44.760 ,3,1,0.,24.0,0.,24.0,0.,24.0,0.,24.0
1979-07-03 14:14:08.760 ,3,0,1.,24.0,0.,24.0,0.,24.0,0.,24.0
1979-07-03 14:14:32.760 ,4,1,0.,24.0,0.,24.0,0.,24.0,0.,24.0
1979-07-03 14:14:56.760 ,4,0,0.,24.0,0.,24.0,0.,24.0,0.,24.0
1979-07-03 14:15:20.760 ,5,1,0.,24.0,0.,24.0,0.,24.0,0.,24.0
1979-07-03 14:15:44.760 ,5,0,0.,24.0,0.,24.0,0.,24.0,0.,24.0
1979-07-03 14:16:08.760 ,6,1,0.,24.0,0.,24.0,0.,24.0,0.,24.0
1979-07-03 14:16:32.760 ,6,0,0.,24.0,0.,24.0,0.,24.0,0.,24.0
1979-07-03 14:16:56.760 ,7,1,0.,24.0,0.,24.0,0.,24.0,0.,24.0
1979-07-03 14:17:20.760 ,7,0,0.,24.0,0.,24.0,0.,24.0,0.,24.0
1979-07-03 14:17:44.760 ,7,1,0.,24.0,0.,24.0,0.,24.0,0.,24.0
1979-07-03 14:18:08.760 ,7,0,0.,24.0,0.,24.0,0.,24.0,0.,24.0
1979-07-03 14:18:32.760 ,6,1,0.,24.0,0.,24.0,0.,24.0,0.,24.0
1979-07-03 14:18:56.760 ,6,0,0.,24.0,0.,24.0,0.,24.0,0.,24.0
1979-07-03 14:19:20.760 ,5,1,0.,24.0,0.,24.0,0.,24.0,0.,24.0
1979-07-03 14:19:44.760 ,5,0,0.,24.0,0.,24.0,0.,24.0,0.,24.0
1979-07-03 14:20:08.760 ,4,1,0.,24.0,0.,24.0,0.,24.0,0.,24.0
1979-07-03 14:20:32.760 ,4,0,0.,24.0,0.,24.0,0.,24.0,0.,24.0
1979-07-03 14:20:56.760 ,3,1,0.,24.0,0.,24.0,0.,24.0,0.,24.0
1979-07-03 14:21:20.760 ,3,0,0.,24.0,0.,24.0,0.,24.0,0.,24.0
1979-07-03 14:21:44.760 ,2,1,0.,24.0,0.,24.0,0.,24.0,0.,24.0
1979-07-03 14:22:08.760 ,2,0,0.,24.0,0.,24.0,0.,24.0,0.,24.0
1979-07-03 14:22:32.760 ,1,1,1.,24.0,0.,24.0,0.,24.0,0.,24.0
1979-07-03 14:22:56.760 ,1,0,0.,24.0,0.,24.0,0.,24.0,0.,24.0
1979-07-03 14:23:20.760 ,0,1,0.,24.0,0.,24.0,0.,24.0,0.,24.0
1979-07-03 14:23:44.760 ,0,0,0.,24.0,0.,24.0,0.,24.0,0.,24.0
1979-07-03 14:24:08.760 ,0,1,0.,24.0,0.,24.0,0.,24.0,0.,24.0
1979-07-03 14:24:32.760 ,0,0,0.,24.0,0.,24.0,0.,24.0,0.,24.0
1979-07-03 14:24:56.760 ,1,1,0.,24.0,0.,24.0,0.,24.0,0.,24.0
1979-07-03 14:25:20.760 ,1,0,0.,24.0,0.,24.0,0.,24.0,0.,24.0
1979-07-03 14:25:44.760 ,2,1,0.,24.0,0.,24.0,0.,24.0,0.,24.0
1979-07-03 14:26:08.760 ,2,0,0.,24.0,0.,24.0,0.,24.0,0.,24.0
1979-07-03 14:26:32.760 ,3,1,0.,24.0,0.,24.0,0.,24.0,0.,24.0
1979-07-03 14:26:56.760 ,3,0,0.,24.0,0.,24.0,0.,24.0,0.,24.0
1979-07-03 14:27:20.760 ,4,1,0.,24.0,0.,24.0,0.,24.0,0.,24.0
1979-07-03 14:27:44.760 ,4,0,0.,24.0,0.,24.0,0.,24.0,0.,24.0
1979-07-03 14:28:08.760 ,5,1,0.,24.0,0.,24.0,0.,24.0,0.,24.0
1979-07-03 14:28:32.760 ,5,0,0.,24.0,0.,24.0,0.,24.0,0.,24.0
1979-07-03 14:28:56.760 ,6,1,0.,24.0,0.,24.0,0.,24.0,0.,24.0
1979-07-03 14:29:20.760 ,6,0,0.,24.0,0.,24.0,0.,24.0,0.,24.0
1979-07-03 14:29:44.760 ,7,1,0.,24.0,0.,24.0,0.,24.0,0.,24.0
1979-07-03 14:30:08.760 ,7,0,0.,24.0,0.,24.0,0.,24.0,0.,24.0
1979-07-03 14:30:32.760 ,7,1,0.,24.0,0.,24.0,0.,24.0,0.,24.0
1979-07-03 14:30:56.760 ,7,0,0.,24.0,0.,24.0,0.,24.0,0.,24.0
1979-07-03 14:31:20.760 ,6,1,0.,24.0,0.,24.0,0.,24.0,0.,24.0
1979-07-03 14:31:44.760 ,6,0,0.,24.0,0.,24.0,0.,24.0,0.,24.0
1979-07-03 14:32:08.760 ,5,1,0.,24.0,0.,24.0,0.,24.0,0.,24.0
1979-07-03 14:32:32.760 ,5,0,0.,24.0,0.,24.0,0.,24.0,0.,24.0
1979-07-03 14:32:56.760 ,4,1,0.,24.0,0.,24.0,0.,24.0,0.,24.0
1979-07-03 14:33:20.760 ,4,0,0.,24.0,0.,24.0,0.,24.0,0.,24.0
1979-07-03 14:33:44.760 ,3,1,0.,24.0,0.,24.0,0.,24.0,0.,24.0
1979-07-03 14:34:08.760 ,3,0,0.,24.0,0.,24.0,0.,24.0,0.,24.0
1979-07-03 14:34:32.760 ,2,1,0.,24.0,0.,24.0,0.,24.0,0.,24.0
1979-07-03 14:34:56.760 ,2,0,0.,24.0,0.,24.0,0.,24.0,0.,24.0
1979-07-03 14:35:20.760 ,1,1,0.,24.0,0.,24.0,0.,24.0,0.,24.0
1979-07-03 14:35:44.760 ,1,0,0.,24.0,0.,24.0,0.,24.0,0.,24.0
1979-07-03 14:36:08.760 ,0,1,0.,24.0,0.,24.0,0.,24.0,0.,24.0